Retour au catalogue

DELTA 1 DEB

ActifPO
NORAD 7838·DEBRIS·🇺🇸 United States

Lancé Jul 23, 1972 depuis Vandenberg Space Force Base

Loading…

Prochains Passages (prochaines 24 heures)

TLE

FraisSource: Space-Track

Époque: Sep 14, 2026, 04:28 UTC

1 07838U 72058J   26257.18650890  .00001355  00000-0  60661-3 0  9993
2 07838  98.1236 344.8941 0300553 236.0064 121.2218 14.02754122582502

Suivez DELTA 1 DEB en temps réel avec AllMySat

Download on the App Store